Погода в Кочках

Россия / Алтайский край     52°23′16″N   80°39′20″E
темп.,
°C
ветер,
м/с
пор.,
м/с
влажн.,
%
обл.,
%
осадки,
мм/ч
давл.,
гПа
погр.,
м
24 июля, сб
сб2401:00+20ююв2379100 0.3 100557
04:00+19ссз1179100 0.0 100513
07:00+19зсз2379100 0.1 100651
10:00+20з228194 0.1 100659
13:00+27зсз555083 0.1 10061308
16:00+29з454310 0.0 10061768
19:00+28зсз554139 0.0 10061236
22:00+22св347064 0.0 100659
25 июля, вс
вс2501:00+19юв11805 0.0 100711
04:00+19вюв11800 0.0 100611
07:00+20ю11760 0.0 100711
10:00+26ююв11520 0.0 1006584
13:00+30юз243722 0.0 10052188
16:00+32зюз442737 0.0 10032454
19:00+32зсз34294 0.0 10021632
22:00+24ссв334496 0.0 100231
26 июля, пн
пн2601:00+22юв3349100 0.0 100127
04:00+22юз4105216 0.0 1000174
07:00+20зсз613731 0.1 1002347
10:00+23зсз710612 0.1 1003791
13:00+26з794859 0.1 10041723
16:00+24зсз885390 0.0 10051638
19:00+21зсз68571 0.0 10061200
22:00+17сз486892 0.0 1007291
27 июля, вт
вт2701:00+13сз410900 0.1 1009341
04:00+11сз37950 0.0 1010164
07:00+10сз25865 0.0 1011134
10:00+15з2360100 0.0 1012382
13:00+20з4640100 0.0 10112366
16:00+18сз4544100 0.0 10111217
19:00+19ссз454130 0.0 10111740
22:00+16сз3747100 0.0 1013273
28 июля, ср
ср2801:00+14ссв365288 0.0 1013155
04:00+13ссв1153100 0.0 101320
07:00+13ссз1154100 0.0 101324
10:00+17ссв234192 0.0 1013959
13:00+19с333399 0.0 10132049
16:00+21ссв342947 0.0 10122553
19:00+21всв443095 0.0 10112444
22:00+16св3648100 0.0 1012149